Temperature
24 23 23 22 21 20 22 25 27 27 26 27 27 26 25 24 23 21 21 21 21 21 20 20 20 20 20 20 20 19 19 19 19 19 19 19 19 19 19 18 18 18 18 18 18 18 18 18 18
24 23 23 22 20 21 23 26 27 27 27 26 26 26 25 23 22 20 20 21 22 21 21 20 20 20 20 20 20 19 19 19 19 19 19 19 19 19 18 18 19 18 18 18 18 18 18 18 18
24 23 23 20 21 22 24 26 27 28 27 27 26 26 25 23 21 21 21 22 22 21 21 20 20 20 20 20 20 19 19 19 19 19 19 19 18 18 18 18 19 18 18 18 18 18 18 18 18
24 23 22 21 22 24 25 26 27 27 27 27 26 25 24 23 23 22 22 22 22 21 21 20 20 20 20 20 20 19 19 19 19 19 19 19 19 19 18 18 18 18 18 18 18 18 18 18 17
23 23 21 21 23 25 26 27 28 27 27 26 25 24 23 23 24 23 22 22 22 21 21 20 20 20 20 20 20 19 19 19 19 19 19 19 19 19 19 19 18 18 18 18 18 18 18 17 17
23 21 21 21 24 26 27 28 27 27 26 25 24 23 22 22 23 22 22 22 22 21 21 20 20 20 20 20 20 19 19 19 19 19 19 19 19 18 19 19 19 19 18 18 18 18 18 17 17
23 21 22 23 24 25 27 28 28 26 26 25 24 22 21 21 22 22 22 22 21 21 21 20 20 20 20 20 20 20 19 19 19 19 19 19 19 19 19 19 19 19 18 18 18 18 18 17 17
25 21 22 23 25 25 27 28 27 27 26 25 25 22 21 21 21 21 21 21 21 21 21 20 20 20 20 20 20 20 19 19 19 19 19 19 19 19 18 18 18 18 18 18 18 18 18 17 17
25 21 21 23 25 26 27 27 27 27 26 26 25 25 23 22 21 21 20 20 20 20 20 20 20 20 20 20 19 19 19 19 19 19 19 18 18 18 18 18 18 18 18 18 18 18 18 17 17
24 21 22 25 26 26 27 27 27 26 25 24 24 24 23 22 21 21 20 20 20 20 20 20 20 20 20 20 19 19 19 19 19 19 18 18 18 18 18 18 18 18 18 18 18 18 18 18 17
24 23 25 26 28 28 27 28 28 26 25 24 24 23 22 21 21 21 21 21 21 20 20 20 20 20 20 20 20 19 19 19 19 18 18 18 18 18 18 18 18 18 18 18 18 18 18 18 18
25 25 27 28 28 28 28 28 27 26 26 27 26 24 23 22 21 21 21 21 21 20 20 20 20 20 20 20 20 19 19 19 19 18 18 18 18 18 18 18 18 18 18 18 18 18 18 18 18
25 26 28 28 28 28 28 27 27 26 27 26 25 24 23 22 22 22 21 21 21 21 20 20 20 20 20 20 19 19 19 19 19 18 18 18 18 18 18 18 18 18 18 18 18 18 18 18 18
26 27 27 28 28 28 28 27 27 26 26 25 24 23 23 23 22 21 21 21 21 21 20 20 20 20 20 20 19 19 19 19 18 18 18 18 18 18 18 18 18 18 18 18 18 18 18 18 18
27 26 26 26 27 28 28 27 26 27 25 24 24 23 23 23 23 22 22 21 21 21 20 20 20 19 19 19 19 19 19 19 18 18 18 18 18 18 18 18 18 18 18 18 18 18 18 18 18
25 25 24 26 27 28 27 25 26 26 25 24 24 23 23 23 23 22 22 21 21 21 20 20 19 19 19 19 19 19 19 19 19 18 18 18 18 18 18 18 18 18 18 18 18 18 17 17 18
23 23 24 25 27 27 26 25 26 26 26 24 24 23 22 22 22 22 22 22 21 21 20 20 19 19 19 19 19 19 19 19 19 18 18 18 18 18 18 18 18 18 18 18 18 18 17 18 17
22 23 24 25 26 27 26 25 26 26 26 25 24 23 22 22 22 22 22 22 21 21 20 20 20 19 19 18 18 18 18 18 18 18 18 18 18 18 18 18 18 18 18 18 18 17 17 18 17
24 24 24 25 27 26 25 25 25 25 25 24 24 23 22 22 22 22 22 21 21 20 20 20 19 19 19 18 18 18 18 18 18 18 18 18 18 18 18 18 18 18 18 18 18 17 17 17 17
25 24 24 25 26 27 25 25 25 25 25 25 24 23 22 22 22 21 21 21 21 20 20 19 19 19 19 19 18 18 18 18 18 18 18 18 18 18 18 18 18 18 17 17 17 17 17 17 17
25 24 24 25 26 26 25 24 24 24 24 24 24 23 22 22 22 21 21 21 20 20 20 19 19 19 19 18 18 18 18 18 18 18 18 18 18 18 18 18 18 18 17 17 17 17 17 17 17
24 26 27 26 25 23 24 22 23 23 23 23 22 22 22 22 22 21 21 21 20 20 20 19 19 19 18 18 18 18 18 18 18 18 18 18 18 18 18 18 17 17 17 17 17 17 17 17 17
25 27 27 26 24 22 22 22 22 22 22 22 22 22 22 22 22 22 21 21 21 20 20 19 19 19 18 18 18 18 18 18 18 18 18 18 18 17 17 17 17 17 17 17 17 17 17 17 17
27 26 25 22 21 21 22 22 21 20 21 21 21 22 22 22 22 22 21 21 20 20 19 19 19 18 18 18 18 18 18 18 18 18 18 18 17 17 17 17 17 17 17 17 17 17 17 17 17
26 23 21 21 20 20 21 21 21 21 22 22 21 22 22 22 21 21 21 20 20 20 19 19 19 18 18 18 18 18 18 18 18 18 18 18 17 17 17 17 17 17 17 17 17 17 17 17 17
24 22 21 21 21 20 21 21 21 21 22 22 22 22 22 21 21 21 21 20 20 20 19 19 19 18 18 18 18 18 18 18 18 18 18 18 18 18 17 17 17 17 17 17 17 17 17 17 17
25 22 21 20 20 20 20 21 21 21 21 21 21 21 21 21 21 21 21 20 20 20 19 19 19 18 18 18 18 18 18 18 18 17 17 17 17 17 17 17 17 17 17 17 17 17 17 17 17
25 23 20 20 20 20 21 21 20 20 20 20 20 20 20 21 21 21 21 20 20 20 19 19 19 19 19 18 18 18 18 18 17 17 17 17 17 17 17 17 17 17 17 17 17 17 16 16 16
25 23 20 18 19 20 20 20 21 20 19 19 19 20 20 21 21 21 20 20 20 20 19 19 19 19 18 18 18 18 18 18 17 17 17 17 17 17 17 17 17 17 17 16 16 16 16 16 16
24 23 20 20 20 19 19 19 21 20 19 19 19 20 21 21 21 21 21 20 20 20 19 19 19 18 18 18 18 18 17 17 17 17 17 17 17 17 17 17 17 17 17 16 16 16 16 16 16
Wind_Speed
6 5 3 1 4 3 2 3 3 3 4 5 9 11 9 6 5 7 8 18 21 19 19 22 22 22 22 21 20 19 19 19 19 19 19 19 19 19 19 19 19 19 19 19 18 18 18 19 19
2 4 1 3 4 2 3 1 3 5 7 10 9 11 9 7 9 12 10 19 22 19 19 21 24 23 22 21 20 19 19 19 19 19 19 19 19 18 18 18 19 19 18 18 18 18 17 18 17
3 3 2 3 1 3 3 2 2 5 9 9 6 6 6 8 11 8 14 22 20 16 18 22 25 23 23 22 21 20 19 19 19 19 19 19 19 19 18 18 19 18 18 17 17 16 16 16 16
1 3 3 2 4 5 5 5 1 5 7 8 9 7 5 6 8 15 23 23 20 15 18 23 25 24 23 22 21 20 19 19 19 19 18 18 18 18 18 18 18 18 17 16 16 15 15 14 14
3 3 3 2 5 4 5 6 4 5 4 8 11 7 5 5 20 25 23 22 21 17 16 22 25 24 23 22 21 21 20 19 19 19 18 18 18 18 18 17 17 17 16 15 14 13 13 13 12
3 4 2 3 5 5 6 5 4 6 10 10 10 7 4 12 22 22 21 20 20 19 15 20 24 24 23 22 21 21 20 20 19 19 19 18 18 17 17 17 16 16 15 14 12 11 11 11 10
3 2 3 4 4 5 4 4 5 8 9 7 10 7 6 11 17 19 18 18 17 16 14 14 19 21 22 22 21 21 20 20 19 19 18 18 17 17 16 16 16 15 14 12 11 10 9 9 9
5 3 2 3 4 4 2 1 4 8 7 9 8 10 10 14 17 18 17 16 15 14 13 12 14 16 17 19 21 21 20 19 19 19 19 18 17 17 16 15 15 14 13 11 10 9 7 7 8
3 2 4 5 4 3 2 1 1 4 7 4 4 8 17 22 22 21 18 15 14 14 12 12 11 12 14 16 19 19 19 19 19 18 19 17 14 14 14 14 14 13 12 10 9 7 6 6 7
5 5 9 7 6 5 5 5 5 5 8 5 8 13 21 22 23 23 22 20 18 17 14 12 12 12 13 14 15 14 14 15 14 14 15 13 13 12 13 14 13 12 11 9 7 6 5 5 6
7 8 9 9 10 7 6 5 4 9 6 10 17 21 21 20 20 21 21 20 19 18 16 14 13 12 10 8 11 9 10 11 12 13 14 13 11 10 10 9 10 9 8 6 5 4 3 3 5
6 10 10 10 9 5 6 4 3 6 9 15 21 24 22 21 20 21 21 20 18 18 17 15 13 11 9 10 8 8 8 8 8 11 13 11 7 7 7 6 7 6 5 5 4 3 2 3 6
9 11 13 12 9 7 5 5 5 6 10 15 20 22 22 21 19 17 18 18 18 18 17 17 16 14 10 9 7 9 7 8 10 11 13 13 8 6 6 5 6 6 6 5 4 3 3 3 5
8 9 10 8 8 5 5 4 5 7 15 16 19 18 20 21 19 17 18 18 19 19 18 16 16 14 11 10 8 8 9 10 11 10 13 15 12 8 6 5 5 5 7 7 6 4 3 3 3
6 8 10 7 5 5 3 3 6 11 15 16 18 18 17 16 18 20 21 20 20 19 18 16 16 14 14 12 10 9 10 11 9 10 13 14 14 11 8 5 4 6 8 7 5 4 4 3 3
6 5 6 8 4 5 4 7 7 11 15 15 16 17 15 14 17 18 18 17 17 16 16 17 16 14 13 11 9 8 10 10 9 11 13 14 15 14 9 5 5 7 7 5 4 3 3 3 3
3 3 7 9 4 3 4 6 7 9 15 14 14 15 15 14 13 14 16 17 17 17 17 16 14 14 12 11 8 8 8 9 10 11 11 13 14 14 10 6 5 8 5 3 3 3 3 3 3
6 5 6 7 5 1 3 6 6 6 12 14 14 14 15 17 17 16 16 16 15 15 15 14 13 13 11 9 7 7 7 7 7 8 10 12 12 13 10 6 6 7 5 4 3 3 3 3 3
7 8 10 10 8 2 4 6 7 6 8 11 12 14 16 15 13 13 15 16 15 14 14 14 14 13 11 9 9 8 8 7 7 7 10 12 12 12 9 6 5 5 5 5 6 4 3 2 2
10 12 11 9 7 2 4 6 5 6 7 11 14 14 15 13 11 14 14 15 16 16 16 15 14 13 12 9 7 6 7 6 6 6 8 11 11 11 9 7 6 6 5 5 5 4 3 2 2
13 12 11 8 6 3 2 4 3 3 2 4 8 12 15 18 17 16 15 15 15 16 17 16 15 14 12 10 7 6 5 4 4 5 6 7 11 11 9 9 7 6 6 6 5 5 5 3 1
12 12 9 6 2 3 1 2 7 2 1 4 6 8 12 14 16 16 15 15 16 15 14 13 14 14 12 12 11 11 8 7 6 6 6 7 9 9 10 10 8 7 6 6 6 5 4 5 3
12 10 6 3 3 1 3 1 6 1 1 4 6 9 10 12 15 16 16 16 15 14 13 12 13 13 12 12 13 12 8 6 5 6 7 7 6 7 9 9 7 7 6 7 6 5 5 4 4
9 4 2 4 5 1 3 2 6 2 4 4 3 5 8 11 13 12 11 10 10 11 11 12 13 12 12 13 13 12 12 10 9 8 8 7 5 5 7 9 7 7 6 6 6 6 6 5 4
4 4 3 4 4 4 3 2 6 5 4 4 5 6 7 9 11 12 12 12 12 13 14 13 14 13 12 13 13 12 12 13 13 10 10 8 6 6 8 8 7 6 6 7 6 6 6 6 5
6 10 9 6 5 4 2 2 6 6 3 1 2 5 7 7 9 12 13 13 13 13 13 14 14 13 13 13 12 11 12 10 9 10 9 9 8 8 9 9 8 8 7 7 6 5 5 5 5
6 6 10 8 4 1 3 4 5 3 4 5 4 4 5 8 10 11 12 12 12 13 13 14 14 12 12 12 11 11 12 11 10 9 8 7 7 8 9 10 9 9 8 8 7 5 5 5 5
10 9 7 7 6 2 2 3 4 3 0 3 3 2 3 5 7 10 11 12 11 12 11 12 12 12 11 12 11 11 11 11 10 9 10 9 9 9 10 10 10 9 9 8 7 5 5 6 5
5 5 6 6 7 6 3 5 4 5 4 3 2 3 4 4 6 8 9 10 10 11 11 11 11 10 10 10 10 10 10 10 10 10 10 10 9 10 11 11 11 10 9 9 8 7 7 7 6
7 7 8 7 4 6 5 4 3 4 4 4 3 4 3 4 5 7 8 8 10 11 11 11 11 11 10 10 9 9 9 10 11 11 10 10 10 10 11 11 10 11 10 9 9 8 7 7 7
Wind_Direction
204 198 191 69 48 36 277 245 145 107 50 60 96 98 99 90 124 136 133 139 137 142 144 141 137 132 128 126 123 119 116 113 111 109 109 110 111 111 112 112 112 111 110 110 110 109 109 109 111
193 198 137 54 77 16 292 246 158 146 124 107 91 94 85 73 92 111 125 140 139 141 142 142 139 135 132 130 127 124 120 117 115 114 113 113 113 115 114 114 113 113 112 112 111 111 111 111 112
222 201 116 85 146 205 264 299 191 138 128 119 107 80 91 115 117 122 139 140 137 138 141 144 141 138 136 133 131 128 125 122 120 118 117 116 116 116 116 116 115 115 114 113 112 112 112 113 113
124 59 49 84 245 242 231 262 229 126 111 102 105 82 82 124 127 133 139 140 137 138 142 145 143 141 139 137 135 133 130 128 125 123 122 120 120 119 118 118 117 117 116 115 115 114 113 113 111
82 81 47 301 264 264 244 233 201 139 116 105 97 89 58 66 122 134 141 141 139 140 143 146 145 143 142 140 139 137 134 132 129 128 126 124 124 123 122 121 120 120 119 118 118 118 117 114 112
52 77 82 269 273 282 260 216 168 119 117 110 102 99 75 123 130 140 142 142 142 143 144 147 147 146 145 144 143 141 139 137 134 132 130 129 128 127 126 126 125 125 124 123 122 122 119 114 110
137 123 215 246 270 285 262 180 146 127 126 133 129 110 115 140 140 140 138 138 139 142 143 146 148 149 148 147 146 145 143 141 139 137 136 134 134 132 131 130 130 131 130 129 129 127 121 113 107
170 118 273 271 257 265 274 55 142 135 127 135 132 133 151 157 142 135 132 133 138 143 146 146 148 148 148 149 149 148 147 145 144 143 141 140 139 137 136 135 135 136 135 136 135 132 124 110 103
155 105 241 233 227 241 241 144 122 116 121 141 147 147 151 148 141 136 135 137 145 150 152 150 148 147 147 150 153 152 151 150 149 148 146 143 139 139 140 142 142 141 141 142 141 137 126 106 98
150 189 230 217 211 226 232 194 170 126 117 105 103 120 139 146 147 147 152 154 158 159 160 158 155 153 153 156 152 153 152 152 150 149 145 144 144 147 148 150 148 147 148 148 148 141 129 102 96
185 213 241 246 242 220 218 221 173 138 148 158 147 146 149 152 155 156 159 162 163 162 162 163 160 160 161 151 154 154 151 152 153 154 153 154 152 150 146 148 149 148 148 146 150 141 123 107 110
239 252 252 254 251 231 216 194 166 164 180 169 155 153 156 162 164 165 164 164 163 164 165 164 164 165 162 153 160 157 155 160 163 167 164 156 150 147 150 152 153 153 151 147 147 147 136 115 116
250 263 263 256 254 230 216 194 172 177 162 151 152 156 164 170 169 168 164 162 164 167 168 169 167 168 164 158 167 164 163 169 172 172 170 162 156 157 158 160 162 164 159 158 159 158 141 124 114
250 269 277 267 258 237 209 220 149 174 154 150 157 166 170 172 167 162 164 166 170 171 171 170 170 168 164 166 169 167 168 170 171 172 171 166 163 161 160 161 166 168 169 165 160 155 140 134 133
275 302 302 282 261 247 179 271 202 172 158 159 167 172 174 173 168 170 172 172 172 171 170 171 170 168 169 170 172 169 171 170 170 169 170 167 164 162 160 161 162 167 165 154 140 130 119 124 129
344 331 298 287 275 261 160 233 238 168 162 170 173 175 173 174 176 174 169 170 169 167 168 170 171 169 170 168 168 165 170 168 169 167 167 167 164 163 158 159 164 161 152 140 130 120 112 113 125
345 272 270 289 282 262 167 223 232 172 166 173 174 172 172 175 176 173 171 170 168 169 168 169 166 167 167 163 159 159 164 164 164 162 163 167 166 163 157 158 164 159 145 141 149 124 128 131 137
244 261 277 272 287 295 226 240 244 191 172 172 170 168 173 180 184 177 173 168 165 166 167 167 164 165 161 157 149 146 153 160 158 161 164 164 165 162 153 155 158 155 142 145 142 137 132 142 149
243 266 274 277 281 278 246 240 238 205 175 171 171 171 177 184 179 171 169 165 162 164 167 169 167 169 165 163 162 159 161 163 162 166 165 163 163 159 155 154 153 152 155 164 157 141 137 131 121
250 260 269 278 277 254 240 242 230 198 189 177 174 173 172 164 162 167 165 166 169 172 172 171 173 172 173 168 165 160 152 161 164 165 164 163 163 163 165 156 161 161 156 159 158 142 135 136 132
251 243 244 243 283 325 61 317 277 244 131 154 166 167 167 166 167 169 170 172 172 176 176 177 175 173 171 162 150 142 130 128 144 160 167 171 170 170 166 165 162 166 162 169 171 157 145 154 170
252 246 236 232 222 290 62 255 289 265 109 159 160 159 166 166 169 171 174 174 178 179 176 175 175 173 170 165 163 162 166 168 174 170 171 173 175 175 171 167 167 169 168 170 177 164 151 148 162
234 240 229 216 171 78 5 126 284 346 201 214 194 173 169 170 170 174 178 177 175 174 173 173 170 172 173 173 171 169 171 171 155 157 167 175 179 180 174 171 168 171 174 175 173 158 156 153 160
230 243 356 43 78 52 270 174 270 255 219 230 231 181 170 169 168 169 168 163 164 167 172 173 174 178 178 176 175 176 173 169 163 169 177 182 183 186 182 176 174 176 178 178 176 167 160 161 155
213 128 37 358 15 246 271 179 255 266 253 207 201 180 169 161 161 159 159 164 169 172 177 178 177 180 181 180 181 181 178 175 179 180 183 183 184 190 192 183 178 179 179 175 167 165 163 164 162
199 149 161 187 210 260 317 241 266 284 301 357 148 149 155 158 165 167 168 173 177 178 177 177 180 182 184 185 185 182 179 180 184 184 182 186 191 194 186 181 179 178 175 175 166 161 168 167 169
183 176 168 141 150 136 284 290 310 354 32 40 71 119 161 178 178 171 172 176 177 178 179 178 180 182 186 187 183 182 183 182 183 183 183 185 190 191 182 181 178 179 178 174 165 167 171 169 174
172 160 108 122 148 199 267 272 242 258 93 49 50 140 185 178 173 170 172 179 179 178 176 175 177 183 186 186 187 189 185 184 181 180 187 188 190 189 179 180 180 178 176 172 168 167 173 171 179
149 126 119 127 147 153 198 261 226 196 173 162 189 203 177 182 181 175 178 178 175 173 173 176 178 180 183 186 189 186 184 181 179 183 190 190 190 188 185 183 182 180 179 175 171 176 174 178 186
146 154 140 143 173 157 160 248 285 166 162 165 183 203 185 176 182 178 173 174 172 173 176 179 181 183 187 185 186 188 184 181 182 185 189 187 186 185 184 181 182 185 184 180 178 184 182 182 187
Height
1491 1492 1492 1493 1495 1502 1502 1489 1479 1476 1477 1477 1477 1479 1482 1487 1492 1502 1500 1502 1506 1510 1514 1517 1519 1521 1523 1524 1525 1527 1528 1529 1530 1531 1532 1533 1534 1535 1536 1538 1539 1540 1541 1542 1543 1544 1545 1546 1547
1491 1492 1493 1493 1501 1512 1502 1485 1479 1475 1477 1478 1479 1481 1483 1488 1490 1494 1498 1504 1507 1510 1514 1517 1520 1522 1524 1525 1527 1528 1529 1530 1532 1533 1534 1535 1536 1537 1538 1539 1541 1542 1543 1544 1545 1547 1548 1549 1549
1491 1492 1494 1496 1502 1506 1498 1483 1478 1475 1476 1477 1480 1482 1485 1490 1491 1494 1498 1503 1508 1511 1515 1518 1520 1522 1524 1526 1528 1529 1531 1532 1533 1534 1536 1537 1538 1539 1540 1541 1543 1544 1545 1547 1548 1549 1550 1551 1552
1491 1492 1494 1499 1501 1490 1486 1480 1476 1477 1478 1478 1479 1485 1488 1491 1491 1494 1499 1504 1508 1512 1515 1518 1521 1523 1525 1527 1529 1530 1532 1533 1535 1536 1537 1539 1540 1541 1542 1543 1545 1546 1547 1549 1550 1551 1552 1553 1554
1491 1492 1498 1503 1496 1484 1477 1475 1474 1475 1477 1479 1479 1486 1491 1493 1493 1496 1500 1504 1508 1512 1516 1519 1521 1524 1526 1528 1530 1531 1533 1534 1536 1537 1539 1540 1541 1543 1544 1545 1547 1548 1549 1551 1552 1554 1555 1556 1556
1491 1492 1504 1506 1493 1480 1474 1472 1473 1476 1477 1479 1481 1487 1494 1495 1495 1498 1501 1505 1508 1512 1516 1519 1522 1524 1526 1528 1530 1532 1534 1535 1537 1538 1540 1541 1543 1544 1546 1547 1548 1550 1551 1553 1554 1556 1557 1558 1559
1491 1494 1500 1496 1490 1482 1472 1471 1473 1474 1477 1479 1481 1487 1495 1498 1498 1500 1503 1506 1509 1512 1515 1519 1522 1525 1527 1529 1531 1533 1534 1536 1538 1539 1541 1543 1544 1546 1547 1549 1550 1552 1553 1555 1556 1558 1559 1560 1561
1487 1491 1495 1493 1489 1483 1472 1471 1473 1473 1476 1478 1479 1484 1492 1497 1499 1502 1505 1508 1510 1513 1516 1518 1521 1524 1527 1529 1531 1533 1535 1537 1538 1540 1542 1544 1545 1547 1549 1550 1552 1553 1555 1556 1558 1559 1561 1562 1563
1486 1494 1499 1491 1484 1479 1472 1472 1473 1474 1474 1476 1477 1478 1484 1492 1497 1500 1504 1508 1511 1513 1516 1518 1521 1524 1526 1529 1531 1533 1535 1537 1539 1541 1543 1544 1546 1548 1550 1551 1553 1555 1556 1558 1559 1561 1562 1564 1564
1483 1494 1487 1477 1473 1473 1471 1470 1471 1474 1473 1475 1477 1480 1486 1490 1494 1496 1500 1504 1507 1511 1514 1517 1520 1523 1526 1528 1530 1533 1535 1537 1539 1541 1543 1545 1547 1549 1551 1553 1554 1556 1558 1559 1561 1562 1564 1565 1566
1477 1480 1472 1469 1468 1468 1468 1467 1468 1471 1473 1472 1473 1479 1485 1490 1492 1494 1497 1501 1504 1508 1512 1515 1518 1521 1524 1527 1530 1532 1534 1537 1539 1541 1544 1546 1548 1550 1552 1553 1555 1557 1559 1560 1562 1564 1565 1566 1567
1474 1469 1467 1465 1464 1464 1464 1465 1466 1466 1467 1468 1470 1474 1480 1486 1489 1491 1494 1499 1503 1506 1509 1513 1517 1520 1523 1526 1529 1532 1534 1536 1539 1541 1544 1546 1548 1550 1552 1554 1556 1558 1560 1561 1563 1565 1566 1567 1568
1470 1466 1463 1461 1460 1460 1461 1462 1463 1464 1464 1467 1470 1474 1478 1482 1486 1490 1493 1497 1501 1504 1508 1511 1515 1519 1522 1525 1528 1531 1534 1536 1539 1541 1544 1546 1548 1550 1553 1555 1557 1559 1560 1562 1564 1565 1567 1568 1569
1465 1462 1459 1458 1457 1457 1457 1458 1460 1462 1463 1466 1470 1473 1475 1479 1483 1487 1491 1494 1498 1501 1505 1509 1513 1517 1520 1523 1527 1530 1533 1536 1538 1541 1543 1546 1548 1550 1553 1555 1557 1559 1561 1562 1564 1566 1567 1568 1569
1462 1462 1459 1455 1454 1453 1456 1460 1457 1458 1461 1465 1468 1471 1474 1478 1481 1483 1486 1489 1494 1498 1502 1507 1511 1515 1518 1522 1525 1528 1531 1534 1537 1540 1543 1545 1548 1550 1552 1554 1556 1558 1560 1562 1564 1566 1567 1568 1569
1462 1466 1470 1456 1452 1451 1459 1468 1455 1457 1460 1463 1466 1469 1472 1476 1478 1480 1484 1487 1491 1495 1500 1504 1508 1512 1516 1519 1523 1526 1530 1533 1536 1539 1542 1544 1547 1549 1552 1554 1556 1558 1560 1562 1563 1565 1566 1568 1569
1471 1477 1472 1461 1450 1449 1455 1462 1453 1454 1456 1460 1463 1467 1471 1474 1476 1479 1482 1484 1488 1493 1497 1501 1505 1509 1513 1517 1521 1524 1528 1531 1534 1537 1540 1543 1545 1548 1551 1553 1555 1557 1559 1561 1563 1564 1566 1567 1569
1480 1476 1470 1464 1451 1450 1454 1456 1450 1452 1452 1455 1459 1463 1467 1470 1472 1475 1478 1482 1486 1491 1495 1499 1502 1507 1511 1516 1519 1522 1526 1530 1532 1535 1538 1541 1544 1547 1549 1552 1554 1556 1558 1560 1562 1563 1565 1567 1569
1466 1469 1470 1460 1448 1451 1454 1453 1450 1449 1451 1454 1456 1459 1462 1466 1469 1473 1476 1480 1484 1489 1492 1496 1500 1504 1508 1512 1516 1519 1523 1527 1530 1533 1536 1540 1542 1545 1548 1550 1553 1555 1557 1558 1560 1562 1564 1566 1567
1463 1468 1467 1458 1447 1449 1453 1453 1447 1447 1448 1449 1452 1455 1458 1462 1468 1471 1475 1478 1481 1485 1489 1492 1497 1500 1505 1509 1513 1517 1521 1525 1528 1531 1534 1538 1541 1543 1546 1549 1551 1553 1555 1557 1559 1561 1563 1564 1566
1460 1463 1461 1459 1451 1448 1453 1459 1453 1448 1447 1449 1451 1452 1456 1458 1463 1467 1472 1475 1479 1482 1485 1489 1494 1497 1502 1506 1511 1516 1520 1523 1526 1528 1531 1535 1538 1541 1544 1546 1549 1551 1553 1555 1557 1559 1561 1563 1565
1461 1448 1448 1450 1459 1468 1461 1479 1460 1453 1450 1449 1451 1453 1455 1457 1460 1464 1468 1472 1475 1479 1483 1486 1491 1494 1499 1504 1508 1511 1515 1517 1521 1525 1528 1532 1536 1539 1541 1544 1546 1549 1551 1553 1556 1558 1560 1562 1563
1447 1439 1443 1447 1457 1469 1468 1477 1470 1456 1456 1452 1450 1451 1453 1455 1458 1462 1465 1469 1472 1476 1480 1484 1487 1491 1496 1500 1504 1508 1512 1516 1520 1523 1527 1530 1533 1536 1539 1541 1544 1546 1549 1551 1554 1556 1558 1560 1561
1434 1439 1445 1455 1466 1483 1474 1477 1475 1463 1457 1452 1449 1449 1452 1455 1457 1460 1465 1468 1471 1475 1478 1482 1485 1489 1493 1497 1501 1505 1509 1513 1516 1520 1523 1527 1530 1533 1536 1539 1541 1544 1546 1549 1551 1553 1556 1558 1559
1436 1456 1478 1482 1491 1488 1471 1473 1472 1455 1449 1447 1446 1447 1450 1453 1456 1459 1463 1467 1470 1472 1476 1479 1483 1486 1490 1494 1498 1501 1505 1509 1512 1516 1520 1523 1526 1529 1532 1535 1538 1541 1544 1546 1549 1551 1553 1555 1557
1437 1451 1478 1490 1493 1487 1473 1475 1464 1449 1445 1444 1445 1448 1450 1453 1455 1458 1461 1465 1468 1470 1473 1477 1480 1483 1487 1491 1494 1498 1502 1506 1509 1513 1516 1520 1523 1526 1529 1532 1535 1538 1541 1544 1546 1548 1550 1553 1555
1435 1445 1448 1470 1477 1485 1481 1469 1457 1447 1446 1447 1448 1450 1452 1454 1455 1457 1460 1464 1466 1468 1471 1474 1478 1481 1485 1488 1491 1495 1498 1502 1506 1509 1513 1516 1520 1523 1526 1529 1532 1535 1538 1541 1543 1546 1548 1550 1552
1421 1432 1453 1469 1485 1491 1481 1475 1471 1457 1452 1451 1451 1452 1453 1454 1454 1457 1459 1462 1464 1467 1470 1473 1476 1479 1482 1485 1488 1491 1495 1498 1502 1506 1509 1513 1516 1520 1523 1526 1529 1532 1535 1538 1540 1542 1545 1547 1549
1425 1434 1447 1463 1468 1484 1491 1481 1453 1452 1451 1452 1452 1452 1452 1453 1454 1456 1458 1461 1464 1466 1469 1472 1475 1477 1480 1483 1486 1489 1492 1495 1499 1502 1506 1509 1513 1516 1519 1523 1526 1529 1531 1534 1537 1539 1542 1544 1546
1418 1428 1442 1461 1468 1470 1479 1477 1447 1448 1448 1449 1449 1450 1450 1452 1453 1455 1458 1460 1463 1465 1468 1470 1472 1475 1477 1480 1483 1486 1489 1493 1496 1499 1503 1506 1509 1513 1516 1519 1522 1525 1528 1531 1533 1536 1538 1541 1543